Time,TemperatureF,DewpointF,PressureIn,WindDirection,WindDirectionDegrees,WindSpeedMPH,WindSpeedGustMPH,Humidity,HourlyPrecipIn,Conditions,Clouds,dailyrainin,SoftwareType,DateUTC
2013-04-27 00:00:00,51.0,-99.9,-100.00,South,180,8.0,15.0,-999,0.00,,,0.00,,2013-04-27 05:00:00,
2013-04-27 00:42:00,51.0,-99.9,-100.00,South,180,8.0,15.0,-999,0.00,,,0.00,,2013-04-27 05:42:00,
2013-04-27 00:52:00,51.0,-99.9,-100.00,South,180,8.0,15.0,-999,0.00,,,0.00,,2013-04-27 05:52:00,
2013-04-27 02:00:00,48.0,-99.9,-100.00,WNW,299,2.0,3.0,-999,0.00,,,0.00,,2013-04-27 07:00:00,
2013-04-27 02:42:00,48.0,-99.9,-100.00,WNW,299,2.0,3.0,-999,0.00,,,0.00,,2013-04-27 07:42:00,
2013-04-27 02:52:00,48.0,-99.9,-100.00,WNW,299,2.0,3.0,-999,0.00,,,0.00,,2013-04-27 07:52:00,
2013-04-27 03:00:00,47.0,-99.9,-100.00,NW,308,1.0,3.0,-999,0.00,,,0.00,,2013-04-27 08:00:00,
2013-04-27 03:42:00,47.0,-99.9,-100.00,NW,308,1.0,3.0,-999,0.00,,,0.00,,2013-04-27 08:42:00,
2013-04-27 03:52:00,47.0,-99.9,-100.00,NW,308,1.0,3.0,-999,0.00,,,0.00,,2013-04-27 08:52:00,
2013-04-27 04:00:00,46.0,-99.9,-100.00,South,182,1.0,2.0,-999,0.00,,,0.00,,2013-04-27 09:00:00,
2013-04-27 04:43:00,46.0,-99.9,-100.00,South,182,1.0,2.0,-999,0.00,,,0.00,,2013-04-27 09:43:00,
2013-04-27 04:53:00,46.0,-99.9,-100.00,South,182,1.0,2.0,-999,0.00,,,0.00,,2013-04-27 09:53:00,
2013-04-27 05:00:00,45.0,-99.9,-100.00,SE,146,2.0,4.0,-999,0.00,,,0.00,,2013-04-27 10:00:00,
2013-04-27 05:42:00,45.0,-99.9,-100.00,SE,146,2.0,4.0,-999,0.00,,,0.00,,2013-04-27 10:42:00,
2013-04-27 05:53:00,45.0,-99.9,-100.00,SE,146,2.0,4.0,-999,0.00,,,0.00,,2013-04-27 10:53:00,
2013-04-27 06:00:00,44.0,-99.9,-100.00,SSE,153,2.0,3.0,-999,0.00,,,0.00,,2013-04-27 11:00:00,
2013-04-27 06:42:00,44.0,-99.9,-100.00,SSE,153,2.0,3.0,-999,0.00,,,0.00,,2013-04-27 11:42:00,
2013-04-27 06:52:00,44.0,-99.9,-100.00,SSE,153,2.0,3.0,-999,0.00,,,0.00,,2013-04-27 11:52:00,
2013-04-27 08:00:00,49.0,-99.9,-100.00,SSE,160,3.0,5.0,-999,0.00,,,0.00,,2013-04-27 13:00:00,
2013-04-27 08:42:00,49.0,-99.9,-100.00,SSE,160,3.0,5.0,-999,0.00,,,0.00,,2013-04-27 13:42:00,
2013-04-27 08:52:00,49.0,-99.9,-100.00,SSE,160,3.0,5.0,-999,0.00,,,0.00,,2013-04-27 13:52:00,
2013-04-27 09:00:00,53.0,-99.9,-100.00,South,173,4.0,7.0,-999,0.00,,,0.00,,2013-04-27 14:00:00,
2013-04-27 09:42:00,53.0,-99.9,-100.00,South,173,4.0,7.0,-999,0.00,,,0.00,,2013-04-27 14:42:00,
2013-04-27 09:52:00,53.0,-99.9,-100.00,South,173,4.0,7.0,-999,0.00,,,0.00,,2013-04-27 14:52:00,
2013-04-27 10:00:00,55.0,-99.9,-100.00,SE,146,4.0,10.0,-999,0.00,,,0.00,,2013-04-27 15:00:00,
2013-04-27 10:43:00,55.0,-99.9,-100.00,SE,146,4.0,10.0,-999,0.00,,,0.00,,2013-04-27 15:43:00,
2013-04-27 10:53:00,55.0,-99.9,-100.00,SE,146,4.0,10.0,-999,0.00,,,0.00,,2013-04-27 15:53:00,
2013-04-27 11:00:00,56.0,-99.9,-100.00,SSE,154,7.0,11.0,-999,0.00,,,0.00,,2013-04-27 16:00:00,
2013-04-27 11:42:00,56.0,-99.9,-100.00,SSE,154,7.0,11.0,-999,0.00,,,0.00,,2013-04-27 16:42:00,
2013-04-27 11:53:00,56.0,-99.9,-100.00,SSE,154,7.0,11.0,-999,0.00,,,0.00,,2013-04-27 16:53:00,
2013-04-27 12:00:00,57.0,-99.9,-100.00,SSE,162,9.0,15.0,-999,0.00,,,0.00,,2013-04-27 17:00:00,
2013-04-27 12:42:00,57.0,-99.9,-100.00,SSE,162,9.0,15.0,-999,0.00,,,0.00,,2013-04-27 17:42:00,
2013-04-27 12:53:00,57.0,-99.9,-100.00,SSE,162,9.0,15.0,-999,0.00,,,0.00,,2013-04-27 17:53:00,
2013-04-27 13:00:00,61.0,-99.9,-100.00,SSE,150,7.0,14.0,-999,0.00,,,0.00,,2013-04-27 18:00:00,
2013-04-27 13:42:00,61.0,-99.9,-100.00,SSE,150,7.0,14.0,-999,0.00,,,0.00,,2013-04-27 18:42:00,
2013-04-27 13:52:00,61.0,-99.9,-100.00,SSE,150,7.0,14.0,-999,0.00,,,0.00,,2013-04-27 18:52:00,
2013-04-27 14:00:00,61.0,-99.9,-100.00,ESE,113,7.0,14.0,-999,0.00,,,0.00,,2013-04-27 19:00:00,
2013-04-27 14:42:00,61.0,-99.9,-100.00,ESE,113,7.0,14.0,-999,0.00,,,0.00,,2013-04-27 19:42:00,
2013-04-27 14:53:00,61.0,-99.9,-100.00,ESE,113,7.0,14.0,-999,0.00,,,0.00,,2013-04-27 19:53:00,
2013-04-27 15:00:00,63.0,-99.9,-100.00,SE,135,7.0,14.0,-999,0.00,,,0.00,,2013-04-27 20:00:00,
2013-04-27 15:42:00,63.0,-99.9,-100.00,SE,135,7.0,14.0,-999,0.00,,,0.00,,2013-04-27 20:42:00,
2013-04-27 15:52:00,63.0,-99.9,-100.00,SE,135,7.0,14.0,-999,0.00,,,0.00,,2013-04-27 20:52:00,
2013-04-27 16:00:00,62.0,-99.9,-100.00,ESE,121,5.0,11.0,-999,0.00,,,0.00,,2013-04-27 21:00:00,
2013-04-27 16:43:00,62.0,-99.9,-100.00,ESE,121,5.0,11.0,-999,0.00,,,0.00,,2013-04-27 21:43:00,
2013-04-27 16:53:00,62.0,-99.9,-100.00,ESE,121,5.0,11.0,-999,0.00,,,0.00,,2013-04-27 21:53:00,
2013-04-27 17:00:00,62.0,-99.9,-100.00,ESE,121,8.0,14.0,-999,0.00,,,0.00,,2013-04-27 22:00:00,
2013-04-27 17:42:00,62.0,-99.9,-100.00,ESE,121,8.0,14.0,-999,0.00,,,0.00,,2013-04-27 22:42:00,
2013-04-27 17:53:00,62.0,-99.9,-100.00,ESE,121,8.0,14.0,-999,0.00,,,0.00,,2013-04-27 22:53:00,
2013-04-27 18:00:00,60.0,-99.9,-100.00,SE,139,9.0,16.0,-999,0.00,,,0.00,,2013-04-27 23:00:00,
2013-04-27 18:43:00,60.0,-99.9,-100.00,SE,139,9.0,16.0,-999,0.00,,,0.00,,2013-04-27 23:43:00,
2013-04-27 18:53:00,60.0,-99.9,-100.00,SE,139,9.0,16.0,-999,0.00,,,0.00,,2013-04-27 23:53:00,
2013-04-27 20:00:00,56.0,-99.9,-100.00,SSE,155,8.0,13.0,-999,0.00,,,0.00,,2013-04-28 01:00:00,
2013-04-27 20:42:00,56.0,-99.9,-100.00,SSE,155,8.0,13.0,-999,0.00,,,0.00,,2013-04-28 01:42:00,
2013-04-27 20:52:00,56.0,-99.9,-100.00,SSE,155,8.0,13.0,-999,0.00,,,0.00,,2013-04-28 01:52:00,
2013-04-27 21:00:00,53.0,-99.9,-100.00,South,174,5.0,9.0,-999,0.00,,,0.00,,2013-04-28 02:00:00,
2013-04-27 21:42:00,53.0,-99.9,-100.00,South,174,5.0,9.0,-999,0.00,,,0.00,,2013-04-28 02:42:00,
2013-04-27 21:52:00,53.0,-99.9,-100.00,South,174,5.0,9.0,-999,0.00,,,0.00,,2013-04-28 02:52:00,
2013-04-27 22:00:00,52.0,-99.9,-100.00,SSW,197,3.0,4.0,-999,0.00,,,0.00,,2013-04-28 03:00:00,
2013-04-27 22:43:00,52.0,-99.9,-100.00,SSW,197,3.0,4.0,-999,0.00,,,0.00,,2013-04-28 03:43:00,
2013-04-27 22:53:00,52.0,-99.9,-100.00,SSW,197,3.0,4.0,-999,0.00,,,0.00,,2013-04-28 03:53:00,
2013-04-27 23:00:00,50.0,-99.9,-100.00,South,187,3.0,4.0,-999,0.00,,,0.00,,2013-04-28 04:00:00,
2013-04-27 23:43:00,50.0,-99.9,-100.00,South,187,3.0,4.0,-999,0.00,,,0.00,,2013-04-28 04:43:00,
2013-04-27 23:53:00,50.0,-99.9,-100.00,South,187,3.0,4.0,-999,0.00,,,0.00,,2013-04-28 04:53:00,